Location: Columbia
(38.9520°N, 92.3340°W)
Time: 09:04:24
(UTC-05:00)

Tiangong 1 - Visible Passes

Search period start: 30 June 2016 00:00
Search period end: 10 July 2016 00:00
Orbit: 369 x 386 km, 42.8° (Epoch: 30 June)

Date Brightness Start Highest point End Pass type
(mag) Time Alt. Az. Time Alt. Az. Time Alt. Az.
30 Jun 1.3 21:44:47 10° WSW 21:47:53 70° NNW 21:50:58 10° ENE visible
30 Jun 2.6 23:21:47 10° WNW 23:24:21 36° NNW 23:24:21 36° NNW visible
01 Jul 2.3 22:19:49 10° W 22:22:47 41° N 22:25:23 12° ENE visible
01 Jul 3.8 23:56:40 10° WNW 23:57:26 16° WNW 23:57:26 16° WNW visible
02 Jul 1.9 21:17:48 10° W 21:20:51 51° NNW 21:23:53 10° ENE visible
02 Jul 2.2 22:54:47 10° WNW 22:57:45 39° N 22:58:19 35° NE visible
03 Jul 2.4 21:52:49 10° WNW 21:55:46 38° N 21:58:41 10° ENE visible
03 Jul 3.0 23:29:32 10° WNW 23:31:08 27° WNW 23:31:08 27° WNW visible
04 Jul 1.9 22:27:40 10° WNW 22:30:40 46° N 22:31:52 29° ENE visible
05 Jul 2.3 21:25:42 10° WNW 21:28:40 39° N 21:31:37 10° ENE visible
05 Jul 2.0 23:02:20 10° WNW 23:04:36 45° WNW 23:04:36 45° WNW visible
06 Jul 1.4 22:00:25 10° WNW 22:03:30 59° NNE 22:05:16 22° E visible
06 Jul 4.1 23:37:12 10° W 23:37:18 11° W 23:37:18 11° W visible
07 Jul 1.3 22:35:05 10° WNW 22:37:58 55° SW 22:37:58 55° SW visible
08 Jul 1.0 21:33:05 10° WNW 21:36:13 83° NNE 21:38:38 15° ESE visible
08 Jul 3.8 23:10:16 10° W 23:10:41 12° WSW 23:10:41 12° WSW visible
09 Jul 2.0 22:07:50 10° W 22:10:42 34° SSW 22:11:22 30° S visible
